<?xml version='1.0' encoding='UTF-8'?>
<gpx xmlns="http://www.topografix.com/GPX/1/1" creator="www.balnam.be" version="1.1" xmlns:xsi="http://www.w3.org/2001/XMLSchema-instance" xsi:schemaLocation="http://www.topografix.com/GPX/1/1 http://www.topografix.com/GPX/1/1/gpx.xsd">
<trk>
<name>hpcbz1</name>
<cmt>v</cmt>
<desc>Buzet Chemin n°1 </desc>
<link href="https://chemins.be/buzet/chemin/1"/><trkseg>
<trkpt lat="50.523200" lon="4.397629"><time>2026-05-02T18:48:12Z</time></trkpt>
<trkpt lat="50.523308" lon="4.397671"><time>2026-05-02T18:58:12Z</time></trkpt>
<trkpt lat="50.524000" lon="4.397220"><time>2026-05-02T19:08:12Z</time></trkpt>
</trkseg>
</trk>
<trk>
<name>hpcbz10</name>
<cmt>r</cmt>
<desc>Buzet Chemin n°10 Rue Notre Dame de Bon-Secours / Chemin de la Maquette</desc>
<link href="https://chemins.be/buzet/chemin/10"/><trkseg>
<trkpt lat="50.541517" lon="4.362004"><time>2026-05-02T18:48:12Z</time></trkpt>
<trkpt lat="50.541013" lon="4.359098"><time>2026-05-02T18:58:12Z</time></trkpt>
</trkseg></trk>
<trk>
<name>hpcbz10</name>
<cmt>v</cmt>
<desc>Buzet Chemin n°10 Rue Notre Dame de Bon-Secours / Chemin de la Maquette</desc>
<link href="https://chemins.be/buzet/chemin/10"/><trkseg>
<trkpt lat="50.541013" lon="4.359098"><time>2026-05-02T18:58:12Z</time></trkpt>
<trkpt lat="50.540213" lon="4.355543"><time>2026-05-02T19:08:12Z</time></trkpt>
<trkpt lat="50.539898" lon="4.354499"><time>2026-05-02T19:18:12Z</time></trkpt>
</trkseg>
</trk>
<trk>
<name>hpcbz12</name>
<cmt>r</cmt>
<desc>Buzet Chemin n°12 Buzet - Liberchies / Les-Bons-Villers - Pont-à-Celles / Rue Bati Notre Dame</desc>
<link href="https://chemins.be/buzet/chemin/12"/><trkseg>
<trkpt lat="50.525239" lon="4.405697"><time>2026-05-02T18:48:12Z</time></trkpt>
<trkpt lat="50.524970" lon="4.405241"><time>2026-05-02T18:58:12Z</time></trkpt>
<trkpt lat="50.524010" lon="4.403614"><time>2026-05-02T19:08:12Z</time></trkpt>
<trkpt lat="50.523574" lon="4.402378"><time>2026-05-02T19:18:12Z</time></trkpt>
<trkpt lat="50.523628" lon="4.401674"><time>2026-05-02T19:28:12Z</time></trkpt>
<trkpt lat="50.522852" lon="4.399956"><time>2026-05-02T19:38:12Z</time></trkpt>
</trkseg></trk>
<trk>
<name>hpcbz12</name>
<cmt>s</cmt>
<desc>Buzet Chemin n°12 Buzet - Liberchies / Les-Bons-Villers - Pont-à-Celles / Rue Bati Notre Dame</desc>
<link href="https://chemins.be/buzet/chemin/12"/><trkseg>
<trkpt lat="50.522852" lon="4.399956"><time>2026-05-02T19:38:12Z</time></trkpt>
<trkpt lat="50.522613" lon="4.399237"><time>2026-05-02T19:48:12Z</time></trkpt>
<trkpt lat="50.522404" lon="4.398538"><time>2026-05-02T19:58:12Z</time></trkpt>
</trkseg></trk>
<trk>
<name>hpcbz12</name>
<cmt>v</cmt>
<desc>Buzet Chemin n°12 Buzet - Liberchies / Les-Bons-Villers - Pont-à-Celles / Rue Bati Notre Dame</desc>
<link href="https://chemins.be/buzet/chemin/12"/><trkseg>
<trkpt lat="50.522404" lon="4.398538"><time>2026-05-02T19:58:12Z</time></trkpt>
<trkpt lat="50.522081" lon="4.397154"><time>2026-05-02T20:08:12Z</time></trkpt>
<trkpt lat="50.522122" lon="4.396885"><time>2026-05-02T20:18:12Z</time></trkpt>
<trkpt lat="50.522119" lon="4.396145"><time>2026-05-02T20:28:12Z</time></trkpt>
<trkpt lat="50.521973" lon="4.395383"><time>2026-05-02T20:38:12Z</time></trkpt>
</trkseg></trk>
<trk>
<name>hpcbz12</name>
<cmt>q</cmt>
<desc>Buzet Chemin n°12 Buzet - Liberchies / Les-Bons-Villers - Pont-à-Celles / Rue Bati Notre Dame</desc>
<link href="https://chemins.be/buzet/chemin/12"/><trkseg>
<trkpt lat="50.521973" lon="4.395383"><time>2026-05-02T20:38:12Z</time></trkpt>
<trkpt lat="50.521616" lon="4.393760"><time>2026-05-02T20:48:12Z</time></trkpt>
</trkseg>
</trk>
<trk>
<name>hpcbz13</name>
<cmt>s</cmt>
<desc>Buzet Chemin n°13 </desc>
<link href="https://chemins.be/buzet/chemin/13"/><trkseg>
<trkpt lat="50.526285" lon="4.392652"><time>2026-05-02T18:48:12Z</time></trkpt>
<trkpt lat="50.525296" lon="4.392891"><time>2026-05-02T18:58:12Z</time></trkpt>
<trkpt lat="50.524532" lon="4.392694"><time>2026-05-02T19:08:12Z</time></trkpt>
<trkpt lat="50.522743" lon="4.391593"><time>2026-05-02T19:18:12Z</time></trkpt>
</trkseg>
</trk>
<trk>
<name>hpcbz14</name>
<cmt>v</cmt>
<desc>Buzet Chemin n°14 </desc>
<link href="https://chemins.be/buzet/chemin/14"/><trkseg>
<trkpt lat="50.537848" lon="4.358824"><time>2026-05-02T18:48:12Z</time></trkpt>
<trkpt lat="50.539912" lon="4.354475"><time>2026-05-02T18:58:12Z</time></trkpt>
<trkpt lat="50.542133" lon="4.347155"><time>2026-05-02T19:08:12Z</time></trkpt>
<trkpt lat="50.544233" lon="4.342812"><time>2026-05-02T19:18:12Z</time></trkpt>
<trkpt lat="50.545004" lon="4.339474"><time>2026-05-02T19:28:12Z</time></trkpt>
</trkseg>
</trk>
<trk>
<name>hpcbz16</name>
<cmt>r</cmt>
<desc>Buzet Chemin n°16 Place Albert 1er</desc>
<link href="https://chemins.be/buzet/chemin/16"/><trkseg>
<trkpt lat="50.539180" lon="4.368987"><time>2026-05-02T18:48:12Z</time></trkpt>
<trkpt lat="50.539899" lon="4.368790"><time>2026-05-02T18:58:12Z</time></trkpt>
</trkseg>
</trk>
<trk>
<name>hpcbz2</name>
<cmt>v</cmt>
<desc>Buzet Chemin n°2 Rue de la Licheroule</desc>
<link href="https://chemins.be/buzet/chemin/2"/><trkseg>
<trkpt lat="50.552188" lon="4.369721"><time>2026-05-02T18:48:12Z</time></trkpt>
<trkpt lat="50.551514" lon="4.368945"><time>2026-05-02T18:58:12Z</time></trkpt>
<trkpt lat="50.550554" lon="4.368246"><time>2026-05-02T19:08:12Z</time></trkpt>
</trkseg></trk>
<trk>
<name>hpcbz2</name>
<cmt>s</cmt>
<desc>Buzet Chemin n°2 Rue de la Licheroule</desc>
<link href="https://chemins.be/buzet/chemin/2"/><trkseg>
<trkpt lat="50.550554" lon="4.368246"><time>2026-05-02T19:08:12Z</time></trkpt>
<trkpt lat="50.550230" lon="4.367822"><time>2026-05-02T19:18:12Z</time></trkpt>
</trkseg></trk>
<trk>
<name>hpcbz2</name>
<cmt>d</cmt>
<desc>Buzet Chemin n°2 Rue de la Licheroule</desc>
<link href="https://chemins.be/buzet/chemin/2"/><trkseg>
<trkpt lat="50.550230" lon="4.367822"><time>2026-05-02T19:18:12Z</time></trkpt>
<trkpt lat="50.549518" lon="4.366937"><time>2026-05-02T19:28:12Z</time></trkpt>
</trkseg>
</trk>
<trk>
<name>hpcbz20</name>
<cmt>v</cmt>
<desc>Buzet Chemin n°20 </desc>
<link href="https://chemins.be/buzet/chemin/20"/><trkseg>
<trkpt lat="50.523900" lon="4.403482"><time>2026-05-02T18:48:12Z</time></trkpt>
<trkpt lat="50.523054" lon="4.405244"><time>2026-05-02T18:58:12Z</time></trkpt>
<trkpt lat="50.522119" lon="4.407316"><time>2026-05-02T19:08:12Z</time></trkpt>
<trkpt lat="50.521705" lon="4.407823"><time>2026-05-02T19:18:12Z</time></trkpt>
</trkseg>
</trk>
<trk>
<name>hpcbz21</name>
<cmt>d</cmt>
<desc>Buzet Sentier n°21 </desc>
<link href="https://chemins.be/buzet/sentier/21"/><trkseg>
<trkpt lat="50.530610" lon="4.387760"><time>2026-05-02T18:48:12Z</time></trkpt>
<trkpt lat="50.530601" lon="4.386166"><time>2026-05-02T18:58:12Z</time></trkpt>
</trkseg></trk>
<trk>
<name>hpcbz21</name>
<cmt>q</cmt>
<desc>Buzet Sentier n°21 </desc>
<link href="https://chemins.be/buzet/sentier/21"/><trkseg>
<trkpt lat="50.530601" lon="4.386166"><time>2026-05-02T18:58:12Z</time></trkpt>
<trkpt lat="50.531177" lon="4.383303"><time>2026-05-02T19:08:12Z</time></trkpt>
<trkpt lat="50.531780" lon="4.380243"><time>2026-05-02T19:18:12Z</time></trkpt>
</trkseg>
</trk>
<trk>
<name>hpcbz26</name>
<cmt>q</cmt>
<desc>Buzet Sentier n°26 </desc>
<link href="https://chemins.be/buzet/sentier/26"/><trkseg>
<trkpt lat="50.546736" lon="4.356980"><time>2026-05-02T18:48:12Z</time></trkpt>
<trkpt lat="50.550704" lon="4.349813"><time>2026-05-02T18:58:12Z</time></trkpt>
<trkpt lat="50.553867" lon="4.346702"><time>2026-05-02T19:08:12Z</time></trkpt>
</trkseg>
</trk>
<trk>
<name>hpcbz27</name>
<cmt>v</cmt>
<desc>Buzet Sentier n°27 </desc>
<link href="https://chemins.be/buzet/sentier/27"/><trkseg>
<trkpt lat="50.544882" lon="4.357839"><time>2026-05-02T18:48:12Z</time></trkpt>
<trkpt lat="50.546081" lon="4.354620"><time>2026-05-02T18:58:12Z</time></trkpt>
<trkpt lat="50.547895" lon="4.350822"><time>2026-05-02T19:08:12Z</time></trkpt>
<trkpt lat="50.550151" lon="4.345221"><time>2026-05-02T19:18:12Z</time></trkpt>
</trkseg>
</trk>
<trk>
<name>hpcbz29</name>
<cmt>q</cmt>
<desc>Buzet Sentier n°29 </desc>
<link href="https://chemins.be/buzet/sentier/29"/><trkseg>
<trkpt lat="50.562176" lon="4.357201"><time>2026-05-02T18:48:12Z</time></trkpt>
<trkpt lat="50.561626" lon="4.358388"><time>2026-05-02T18:58:12Z</time></trkpt>
<trkpt lat="50.561535" lon="4.358900"><time>2026-05-02T19:08:12Z</time></trkpt>
<trkpt lat="50.561164" lon="4.359535"><time>2026-05-02T19:18:12Z</time></trkpt>
<trkpt lat="50.560957" lon="4.360085"><time>2026-05-02T19:28:12Z</time></trkpt>
</trkseg>
</trk>
<trk>
<name>hpcbz3</name>
<cmt>q</cmt>
<desc>Buzet Chemin n°3 </desc>
<link href="https://chemins.be/buzet/chemin/3"/><trkseg>
<trkpt lat="50.548026" lon="4.374829"><time>2026-05-02T18:48:12Z</time></trkpt>
<trkpt lat="50.546804" lon="4.373846"><time>2026-05-02T18:58:12Z</time></trkpt>
</trkseg></trk>
<trk>
<name>hpcbz3</name>
<cmt>v</cmt>
<desc>Buzet Chemin n°3 </desc>
<link href="https://chemins.be/buzet/chemin/3"/><trkseg>
<trkpt lat="50.546804" lon="4.373846"><time>2026-05-02T18:58:12Z</time></trkpt>
<trkpt lat="50.545086" lon="4.372988"><time>2026-05-02T19:08:12Z</time></trkpt>
</trkseg></trk>
<trk>
<name>hpcbz3</name>
<cmt>s</cmt>
<desc>Buzet Chemin n°3 </desc>
<link href="https://chemins.be/buzet/chemin/3"/><trkseg>
<trkpt lat="50.545086" lon="4.372988"><time>2026-05-02T19:08:12Z</time></trkpt>
<trkpt lat="50.543586" lon="4.372129"><time>2026-05-02T19:18:12Z</time></trkpt>
</trkseg>
</trk>
<trk>
<name>hpcbz30</name>
<cmt>q</cmt>
<desc>Buzet Sentier n°30 </desc>
<link href="https://chemins.be/buzet/sentier/30"/><trkseg>
<trkpt lat="50.555721" lon="4.359137"><time>2026-05-02T18:48:12Z</time></trkpt>
<trkpt lat="50.556205" lon="4.359825"><time>2026-05-02T18:58:12Z</time></trkpt>
</trkseg></trk>
<trk>
<name>hpcbz30</name>
<cmt>s</cmt>
<desc>Buzet Sentier n°30 </desc>
<link href="https://chemins.be/buzet/sentier/30"/><trkseg>
<trkpt lat="50.556205" lon="4.359825"><time>2026-05-02T18:58:12Z</time></trkpt>
<trkpt lat="50.556800" lon="4.360519"><time>2026-05-02T19:08:12Z</time></trkpt>
</trkseg></trk>
<trk>
<name>hpcbz30</name>
<cmt>q</cmt>
<desc>Buzet Sentier n°30 </desc>
<link href="https://chemins.be/buzet/sentier/30"/><trkseg>
<trkpt lat="50.556800" lon="4.360519"><time>2026-05-02T19:08:12Z</time></trkpt>
<trkpt lat="50.559146" lon="4.362270"><time>2026-05-02T19:18:12Z</time></trkpt>
<trkpt lat="50.559632" lon="4.363766"><time>2026-05-02T19:28:12Z</time></trkpt>
<trkpt lat="50.560297" lon="4.364189"><time>2026-05-02T19:38:12Z</time></trkpt>
</trkseg>
</trk>
<trk>
<name>hpcbz31</name>
<cmt>v</cmt>
<desc>Buzet Sentier n°31 </desc>
<link href="https://chemins.be/buzet/sentier/31"/><trkseg>
<trkpt lat="50.556651" lon="4.365941"><time>2026-05-02T18:48:12Z</time></trkpt>
<trkpt lat="50.555921" lon="4.365351"><time>2026-05-02T18:58:12Z</time></trkpt>
<trkpt lat="50.555811" lon="4.365111"><time>2026-05-02T19:08:12Z</time></trkpt>
<trkpt lat="50.555507" lon="4.363531"><time>2026-05-02T19:18:12Z</time></trkpt>
</trkseg></trk>
<trk>
<name>hpcbz31</name>
<cmt>s</cmt>
<desc>Buzet Sentier n°31 </desc>
<link href="https://chemins.be/buzet/sentier/31"/><trkseg>
<trkpt lat="50.555507" lon="4.363531"><time>2026-05-02T19:18:12Z</time></trkpt>
<trkpt lat="50.555452" lon="4.361278"><time>2026-05-02T19:28:12Z</time></trkpt>
</trkseg></trk>
<trk>
<name>hpcbz31</name>
<cmt>q</cmt>
<desc>Buzet Sentier n°31 </desc>
<link href="https://chemins.be/buzet/sentier/31"/><trkseg>
<trkpt lat="50.555452" lon="4.361278"><time>2026-05-02T19:28:12Z</time></trkpt>
<trkpt lat="50.555766" lon="4.359325"><time>2026-05-02T19:38:12Z</time></trkpt>
</trkseg></trk>
<trk>
<name>hpcbz31</name>
<cmt>r</cmt>
<desc>Buzet Sentier n°31 </desc>
<link href="https://chemins.be/buzet/sentier/31"/><trkseg>
<trkpt lat="50.555766" lon="4.359325"><time>2026-05-02T19:38:12Z</time></trkpt>
<trkpt lat="50.555562" lon="4.358810"><time>2026-05-02T19:48:12Z</time></trkpt>
<trkpt lat="50.555998" lon="4.357415"><time>2026-05-02T19:58:12Z</time></trkpt>
<trkpt lat="50.555943" lon="4.356793"><time>2026-05-02T20:08:12Z</time></trkpt>
</trkseg></trk>
<trk>
<name>hpcbz31</name>
<cmt>q</cmt>
<desc>Buzet Sentier n°31 </desc>
<link href="https://chemins.be/buzet/sentier/31"/><trkseg>
<trkpt lat="50.555943" lon="4.356793"><time>2026-05-02T20:08:12Z</time></trkpt>
<trkpt lat="50.555548" lon="4.353918"><time>2026-05-02T20:18:12Z</time></trkpt>
<trkpt lat="50.554975" lon="4.352652"><time>2026-05-02T20:28:12Z</time></trkpt>
</trkseg>
</trk>
<trk>
<name>hpcbz32</name>
<cmt>r</cmt>
<desc>Buzet Sentier n°32 Chemin du Chênois</desc>
<link href="https://chemins.be/buzet/sentier/32"/><trkseg>
<trkpt lat="50.556791" lon="4.365967"><time>2026-05-02T18:48:12Z</time></trkpt>
<trkpt lat="50.556953" lon="4.366264"><time>2026-05-02T18:58:12Z</time></trkpt>
<trkpt lat="50.557070" lon="4.367139"><time>2026-05-02T19:08:12Z</time></trkpt>
</trkseg></trk>
<trk>
<name>hpcbz32</name>
<cmt>v</cmt>
<desc>Buzet Sentier n°32 Chemin du Chênois</desc>
<link href="https://chemins.be/buzet/sentier/32"/><trkseg>
<trkpt lat="50.557070" lon="4.367139"><time>2026-05-02T19:08:12Z</time></trkpt>
<trkpt lat="50.557573" lon="4.366687"><time>2026-05-02T19:18:12Z</time></trkpt>
<trkpt lat="50.559183" lon="4.367604"><time>2026-05-02T19:28:12Z</time></trkpt>
<trkpt lat="50.559093" lon="4.368014"><time>2026-05-02T19:38:12Z</time></trkpt>
</trkseg></trk>
<trk>
<name>hpcbz32</name>
<cmt>q</cmt>
<desc>Buzet Sentier n°32 Chemin du Chênois</desc>
<link href="https://chemins.be/buzet/sentier/32"/><trkseg>
<trkpt lat="50.559093" lon="4.368014"><time>2026-05-02T19:38:12Z</time></trkpt>
<trkpt lat="50.559362" lon="4.369524"><time>2026-05-02T19:48:12Z</time></trkpt>
<trkpt lat="50.559830" lon="4.370484"><time>2026-05-02T19:58:12Z</time></trkpt>
</trkseg>
</trk>
<trk>
<name>hpcbz33</name>
<cmt>q</cmt>
<desc>Buzet Sentier n°33 </desc>
<link href="https://chemins.be/buzet/sentier/33"/><trkseg>
<trkpt lat="50.559342" lon="4.367120"><time>2026-05-02T18:48:12Z</time></trkpt>
<trkpt lat="50.560820" lon="4.368416"><time>2026-05-02T18:58:12Z</time></trkpt>
<trkpt lat="50.561676" lon="4.368596"><time>2026-05-02T19:08:12Z</time></trkpt>
</trkseg>
</trk>
<trk>
<name>hpcbz34</name>
<cmt>q</cmt>
<desc>Buzet Sentier n°34 </desc>
<link href="https://chemins.be/buzet/sentier/34"/><trkseg>
<trkpt lat="50.555757" lon="4.364853"><time>2026-05-02T18:48:12Z</time></trkpt>
<trkpt lat="50.555425" lon="4.366250"><time>2026-05-02T18:58:12Z</time></trkpt>
<trkpt lat="50.554795" lon="4.367435"><time>2026-05-02T19:08:12Z</time></trkpt>
<trkpt lat="50.555308" lon="4.372755"><time>2026-05-02T19:18:12Z</time></trkpt>
</trkseg>
</trk>
<trk>
<name>hpcbz35</name>
<cmt>q</cmt>
<desc>Buzet Sentier n°35 </desc>
<link href="https://chemins.be/buzet/sentier/35"/><trkseg>
<trkpt lat="50.555865" lon="4.373503"><time>2026-05-02T18:48:12Z</time></trkpt>
<trkpt lat="50.560811" lon="4.373121"><time>2026-05-02T18:58:12Z</time></trkpt>
</trkseg>
</trk>
<trk>
<name>hpcbz36</name>
<cmt>q</cmt>
<desc>Buzet Sentier n°36 </desc>
<link href="https://chemins.be/buzet/sentier/36"/><trkseg>
<trkpt lat="50.548041" lon="4.361890"><time>2026-05-02T18:48:12Z</time></trkpt>
<trkpt lat="50.551601" lon="4.361890"><time>2026-05-02T18:58:12Z</time></trkpt>
<trkpt lat="50.554003" lon="4.363250"><time>2026-05-02T19:08:12Z</time></trkpt>
</trkseg></trk>
<trk>
<name>hpcbz36</name>
<cmt>s</cmt>
<desc>Buzet Sentier n°36 </desc>
<link href="https://chemins.be/buzet/sentier/36"/><trkseg>
<trkpt lat="50.554003" lon="4.363250"><time>2026-05-02T19:08:12Z</time></trkpt>
<trkpt lat="50.554721" lon="4.363730"><time>2026-05-02T19:18:12Z</time></trkpt>
</trkseg></trk>
<trk>
<name>hpcbz36</name>
<cmt>v</cmt>
<desc>Buzet Sentier n°36 </desc>
<link href="https://chemins.be/buzet/sentier/36"/><trkseg>
<trkpt lat="50.554721" lon="4.363730"><time>2026-05-02T19:18:12Z</time></trkpt>
<trkpt lat="50.554961" lon="4.363600"><time>2026-05-02T19:28:12Z</time></trkpt>
<trkpt lat="50.555301" lon="4.363500"><time>2026-05-02T19:38:12Z</time></trkpt>
<trkpt lat="50.555521" lon="4.363710"><time>2026-05-02T19:48:12Z</time></trkpt>
</trkseg>
</trk>
<trk>
<name>hpcbz37</name>
<cmt>q</cmt>
<desc>Buzet Sentier n°37 </desc>
<link href="https://chemins.be/buzet/sentier/37"/><trkseg>
<trkpt lat="50.555520" lon="4.359290"><time>2026-05-02T18:48:12Z</time></trkpt>
<trkpt lat="50.554252" lon="4.359848"><time>2026-05-02T18:58:12Z</time></trkpt>
<trkpt lat="50.551743" lon="4.361887"><time>2026-05-02T19:08:12Z</time></trkpt>
</trkseg>
</trk>
<trk>
<name>hpcbz38</name>
<cmt>q</cmt>
<desc>Buzet Sentier n°38 </desc>
<link href="https://chemins.be/buzet/sentier/38"/><trkseg>
<trkpt lat="50.540649" lon="4.364784"><time>2026-05-02T18:48:12Z</time></trkpt>
<trkpt lat="50.540965" lon="4.364390"><time>2026-05-02T18:58:12Z</time></trkpt>
<trkpt lat="50.542760" lon="4.363495"><time>2026-05-02T19:08:12Z</time></trkpt>
<trkpt lat="50.545509" lon="4.363611"><time>2026-05-02T19:18:12Z</time></trkpt>
</trkseg></trk>
<trk>
<name>hpcbz38</name>
<cmt>v</cmt>
<desc>Buzet Sentier n°38 </desc>
<link href="https://chemins.be/buzet/sentier/38"/><trkseg>
<trkpt lat="50.545509" lon="4.363611"><time>2026-05-02T19:18:12Z</time></trkpt>
<trkpt lat="50.546300" lon="4.363031"><time>2026-05-02T19:28:12Z</time></trkpt>
</trkseg></trk>
<trk>
<name>hpcbz38</name>
<cmt>q</cmt>
<desc>Buzet Sentier n°38 </desc>
<link href="https://chemins.be/buzet/sentier/38"/><trkseg>
<trkpt lat="50.546300" lon="4.363031"><time>2026-05-02T19:28:12Z</time></trkpt>
<trkpt lat="50.548209" lon="4.365478"><time>2026-05-02T19:38:12Z</time></trkpt>
<trkpt lat="50.549586" lon="4.366422"><time>2026-05-02T19:48:12Z</time></trkpt>
<trkpt lat="50.549518" lon="4.366958"><time>2026-05-02T19:58:12Z</time></trkpt>
</trkseg>
</trk>
<trk>
<name>hpcbz39</name>
<cmt>d</cmt>
<desc>Buzet Sentier n°39 </desc>
<link href="https://chemins.be/buzet/sentier/39"/><trkseg>
<trkpt lat="50.546082" lon="4.354599"><time>2026-05-02T18:48:12Z</time></trkpt>
<trkpt lat="50.546109" lon="4.349256"><time>2026-05-02T18:58:12Z</time></trkpt>
<trkpt lat="50.547050" lon="4.341981"><time>2026-05-02T19:08:12Z</time></trkpt>
</trkseg>
</trk>
<trk>
<name>hpcbz4</name>
<cmt>s</cmt>
<desc>Buzet Chemin n°4 </desc>
<link href="https://chemins.be/buzet/chemin/4"/><trkseg>
<trkpt lat="50.552522" lon="4.380369"><time>2026-05-02T18:48:12Z</time></trkpt>
<trkpt lat="50.555210" lon="4.373760"><time>2026-05-02T18:58:12Z</time></trkpt>
<trkpt lat="50.555352" lon="4.372807"><time>2026-05-02T19:08:12Z</time></trkpt>
</trkseg></trk>
<trk>
<name>hpcbz4</name>
<cmt>r</cmt>
<desc>Buzet Chemin n°4 </desc>
<link href="https://chemins.be/buzet/chemin/4"/><trkseg>
<trkpt lat="50.555352" lon="4.372807"><time>2026-05-02T19:08:12Z</time></trkpt>
<trkpt lat="50.556243" lon="4.371584"><time>2026-05-02T19:18:12Z</time></trkpt>
<trkpt lat="50.557214" lon="4.370342"><time>2026-05-02T19:28:12Z</time></trkpt>
<trkpt lat="50.558050" lon="4.369693"><time>2026-05-02T19:38:12Z</time></trkpt>
<trkpt lat="50.558661" lon="4.369086"><time>2026-05-02T19:48:12Z</time></trkpt>
<trkpt lat="50.559084" lon="4.368028"><time>2026-05-02T19:58:12Z</time></trkpt>
<trkpt lat="50.559370" lon="4.367143"><time>2026-05-02T20:08:12Z</time></trkpt>
<trkpt lat="50.560189" lon="4.364612"><time>2026-05-02T20:18:12Z</time></trkpt>
<trkpt lat="50.560873" lon="4.362411"><time>2026-05-02T20:28:12Z</time></trkpt>
<trkpt lat="50.560989" lon="4.361564"><time>2026-05-02T20:38:12Z</time></trkpt>
<trkpt lat="50.560962" lon="4.360378"><time>2026-05-02T20:48:12Z</time></trkpt>
</trkseg>
</trk>
<trk>
<name>hpcbz40</name>
<cmt>q</cmt>
<desc>Buzet Sentier n°40 </desc>
<link href="https://chemins.be/buzet/sentier/40"/><trkseg>
<trkpt lat="50.540411" lon="4.370229"><time>2026-05-02T18:48:12Z</time></trkpt>
<trkpt lat="50.541256" lon="4.372077"><time>2026-05-02T18:58:12Z</time></trkpt>
<trkpt lat="50.542209" lon="4.374362"><time>2026-05-02T19:08:12Z</time></trkpt>
<trkpt lat="50.543854" lon="4.379329"><time>2026-05-02T19:18:12Z</time></trkpt>
</trkseg></trk>
<trk>
<name>hpcbz40</name>
<cmt>v</cmt>
<desc>Buzet Sentier n°40 </desc>
<link href="https://chemins.be/buzet/sentier/40"/><trkseg>
<trkpt lat="50.543854" lon="4.379329"><time>2026-05-02T19:18:12Z</time></trkpt>
<trkpt lat="50.544231" lon="4.380824"><time>2026-05-02T19:28:12Z</time></trkpt>
<trkpt lat="50.545004" lon="4.384521"><time>2026-05-02T19:38:12Z</time></trkpt>
</trkseg></trk>
<trk>
<name>hpcbz40</name>
<cmt>r</cmt>
<desc>Buzet Sentier n°40 </desc>
<link href="https://chemins.be/buzet/sentier/40"/><trkseg>
<trkpt lat="50.545004" lon="4.384521"><time>2026-05-02T19:38:12Z</time></trkpt>
<trkpt lat="50.545417" lon="4.385720"><time>2026-05-02T19:48:12Z</time></trkpt>
</trkseg>
</trk>
<trk>
<name>hpcbz41</name>
<cmt>q</cmt>
<desc>Buzet Sentier n°41 </desc>
<link href="https://chemins.be/buzet/sentier/41"/><trkseg>
<trkpt lat="50.540950" lon="4.368081"><time>2026-05-02T18:48:12Z</time></trkpt>
<trkpt lat="50.541150" lon="4.367741"><time>2026-05-02T18:58:12Z</time></trkpt>
<trkpt lat="50.541240" lon="4.367441"><time>2026-05-02T19:08:12Z</time></trkpt>
<trkpt lat="50.541470" lon="4.366671"><time>2026-05-02T19:18:12Z</time></trkpt>
<trkpt lat="50.541502" lon="4.366570"><time>2026-05-02T19:28:12Z</time></trkpt>
<trkpt lat="50.542086" lon="4.364500"><time>2026-05-02T19:38:12Z</time></trkpt>
<trkpt lat="50.542762" lon="4.363453"><time>2026-05-02T19:48:12Z</time></trkpt>
<trkpt lat="50.542834" lon="4.362194"><time>2026-05-02T19:58:12Z</time></trkpt>
</trkseg></trk>
<trk>
<name>hpcbz41</name>
<cmt>s</cmt>
<desc>Buzet Sentier n°41 </desc>
<link href="https://chemins.be/buzet/sentier/41"/><trkseg>
<trkpt lat="50.542834" lon="4.362194"><time>2026-05-02T19:58:12Z</time></trkpt>
<trkpt lat="50.542841" lon="4.361853"><time>2026-05-02T20:08:12Z</time></trkpt>
</trkseg></trk>
<trk>
<name>hpcbz41</name>
<cmt>q</cmt>
<desc>Buzet Sentier n°41 </desc>
<link href="https://chemins.be/buzet/sentier/41"/><trkseg>
<trkpt lat="50.542841" lon="4.361853"><time>2026-05-02T20:08:12Z</time></trkpt>
<trkpt lat="50.542893" lon="4.360415"><time>2026-05-02T20:18:12Z</time></trkpt>
</trkseg>
</trk>
<trk>
<name>hpcbz42</name>
<cmt>q</cmt>
<desc>Buzet Sentier n°42 </desc>
<link href="https://chemins.be/buzet/sentier/42"/><trkseg>
<trkpt lat="50.537094" lon="4.366194"><time>2026-05-02T18:48:12Z</time></trkpt>
<trkpt lat="50.537678" lon="4.364685"><time>2026-05-02T18:58:12Z</time></trkpt>
</trkseg></trk>
<trk>
<name>hpcbz42</name>
<cmt>s</cmt>
<desc>Buzet Sentier n°42 </desc>
<link href="https://chemins.be/buzet/sentier/42"/><trkseg>
<trkpt lat="50.537678" lon="4.364685"><time>2026-05-02T18:58:12Z</time></trkpt>
<trkpt lat="50.538110" lon="4.364247"><time>2026-05-02T19:08:12Z</time></trkpt>
<trkpt lat="50.538870" lon="4.362922"><time>2026-05-02T19:18:12Z</time></trkpt>
<trkpt lat="50.540476" lon="4.360298"><time>2026-05-02T19:28:12Z</time></trkpt>
</trkseg></trk>
<trk>
<name>hpcbz42</name>
<cmt>q</cmt>
<desc>Buzet Sentier n°42 </desc>
<link href="https://chemins.be/buzet/sentier/42"/><trkseg>
<trkpt lat="50.540476" lon="4.360298"><time>2026-05-02T19:28:12Z</time></trkpt>
<trkpt lat="50.540986" lon="4.359465"><time>2026-05-02T19:38:12Z</time></trkpt>
</trkseg>
</trk>
<trk>
<name>hpcbz43</name>
<cmt>s</cmt>
<desc>Buzet Sentier n°43 </desc>
<link href="https://chemins.be/buzet/sentier/43"/><trkseg>
<trkpt lat="50.539413" lon="4.362157"><time>2026-05-02T18:48:12Z</time></trkpt>
<trkpt lat="50.540879" lon="4.361129"><time>2026-05-02T18:58:12Z</time></trkpt>
</trkseg></trk>
<trk>
<name>hpcbz43</name>
<cmt>q</cmt>
<desc>Buzet Sentier n°43 </desc>
<link href="https://chemins.be/buzet/sentier/43"/><trkseg>
<trkpt lat="50.540879" lon="4.361129"><time>2026-05-02T18:58:12Z</time></trkpt>
<trkpt lat="50.541327" lon="4.360815"><time>2026-05-02T19:08:12Z</time></trkpt>
<trkpt lat="50.541666" lon="4.360578"><time>2026-05-02T19:18:12Z</time></trkpt>
<trkpt lat="50.542926" lon="4.360234"><time>2026-05-02T19:28:12Z</time></trkpt>
</trkseg>
</trk>
<trk>
<name>hpcbz44</name>
<cmt>q</cmt>
<desc>Buzet Sentier n°44 </desc>
<link href="https://chemins.be/buzet/sentier/44"/><trkseg>
<trkpt lat="50.541084" lon="4.359848"><time>2026-05-02T18:48:12Z</time></trkpt>
<trkpt lat="50.540710" lon="4.362258"><time>2026-05-02T18:58:12Z</time></trkpt>
</trkseg></trk>
<trk>
<name>hpcbz44</name>
<cmt>s</cmt>
<desc>Buzet Sentier n°44 </desc>
<link href="https://chemins.be/buzet/sentier/44"/><trkseg>
<trkpt lat="50.540710" lon="4.362258"><time>2026-05-02T18:58:12Z</time></trkpt>
<trkpt lat="50.540541" lon="4.363444"><time>2026-05-02T19:08:12Z</time></trkpt>
</trkseg>
</trk>
<trk>
<name>hpcbz45</name>
<cmt>q</cmt>
<desc>Buzet Sentier n°45 </desc>
<link href="https://chemins.be/buzet/sentier/45"/><trkseg>
<trkpt lat="50.539305" lon="4.364769"><time>2026-05-02T18:48:12Z</time></trkpt>
<trkpt lat="50.538065" lon="4.364261"><time>2026-05-02T18:58:12Z</time></trkpt>
<trkpt lat="50.537793" lon="4.364557"><time>2026-05-02T19:08:12Z</time></trkpt>
<trkpt lat="50.537714" lon="4.364642"><time>2026-05-02T19:18:12Z</time></trkpt>
<trkpt lat="50.535934" lon="4.365320"><time>2026-05-02T19:28:12Z</time></trkpt>
</trkseg>
</trk>
<trk>
<name>hpcbz46</name>
<cmt>q</cmt>
<desc>Buzet Sentier n°46 </desc>
<link href="https://chemins.be/buzet/sentier/46"/><trkseg>
<trkpt lat="50.537579" lon="4.366561"><time>2026-05-02T18:48:12Z</time></trkpt>
<trkpt lat="50.537813" lon="4.365968"><time>2026-05-02T18:58:12Z</time></trkpt>
<trkpt lat="50.538101" lon="4.364290"><time>2026-05-02T19:08:12Z</time></trkpt>
</trkseg>
</trk>
<trk>
<name>hpcbz47</name>
<cmt>q</cmt>
<desc>Buzet Sentier n°47 </desc>
<link href="https://chemins.be/buzet/sentier/47"/><trkseg>
<trkpt lat="50.543074" lon="4.365963"><time>2026-05-02T18:48:12Z</time></trkpt>
<trkpt lat="50.541847" lon="4.366703"><time>2026-05-02T18:58:12Z</time></trkpt>
<trkpt lat="50.541267" lon="4.367377"><time>2026-05-02T19:08:12Z</time></trkpt>
</trkseg>
</trk>
<trk>
<name>hpcbz48</name>
<cmt>q</cmt>
<desc>Buzet Sentier n°48 </desc>
<link href="https://chemins.be/buzet/sentier/48"/><trkseg>
<trkpt lat="50.543084" lon="4.367556"><time>2026-05-02T18:48:12Z</time></trkpt>
<trkpt lat="50.541271" lon="4.367428"><time>2026-05-02T18:58:12Z</time></trkpt>
</trkseg>
</trk>
<trk>
<name>hpcbz49</name>
<cmt>q</cmt>
<desc>Buzet Sentier n°49 Rue Cardinal Mercier</desc>
<link href="https://chemins.be/buzet/sentier/49"/><trkseg>
<trkpt lat="50.539318" lon="4.364896"><time>2026-05-02T18:48:12Z</time></trkpt>
<trkpt lat="50.539734" lon="4.366505"><time>2026-05-02T18:58:12Z</time></trkpt>
<trkpt lat="50.540307" lon="4.367342"><time>2026-05-02T19:08:12Z</time></trkpt>
<trkpt lat="50.540409" lon="4.366752"><time>2026-05-02T19:18:12Z</time></trkpt>
<trkpt lat="50.541460" lon="4.366521"><time>2026-05-02T19:28:12Z</time></trkpt>
<trkpt lat="50.541820" lon="4.366701"><time>2026-05-02T19:38:12Z</time></trkpt>
</trkseg>
</trk>
<trk>
<name>hpcbz5</name>
<cmt>v</cmt>
<desc>Buzet Chemin n°5 </desc>
<link href="https://chemins.be/buzet/chemin/5"/><trkseg>
<trkpt lat="50.533955" lon="4.385744"><time>2026-05-02T18:48:12Z</time></trkpt>
<trkpt lat="50.532903" lon="4.382740"><time>2026-05-02T18:58:12Z</time></trkpt>
<trkpt lat="50.532032" lon="4.380454"><time>2026-05-02T19:08:12Z</time></trkpt>
<trkpt lat="50.531798" lon="4.379961"><time>2026-05-02T19:18:12Z</time></trkpt>
<trkpt lat="50.531501" lon="4.379410"><time>2026-05-02T19:28:12Z</time></trkpt>
<trkpt lat="50.529407" lon="4.377971"><time>2026-05-02T19:38:12Z</time></trkpt>
<trkpt lat="50.529173" lon="4.377562"><time>2026-05-02T19:48:12Z</time></trkpt>
</trkseg>
</trk>
<trk>
<name>hpcbz50</name>
<cmt>q</cmt>
<desc>Buzet Sentier n°50 </desc>
<link href="https://chemins.be/buzet/sentier/50"/><trkseg>
<trkpt lat="50.538870" lon="4.368444"><time>2026-05-02T18:48:12Z</time></trkpt>
<trkpt lat="50.539109" lon="4.368111"><time>2026-05-02T18:58:12Z</time></trkpt>
<trkpt lat="50.539420" lon="4.366951"><time>2026-05-02T19:08:12Z</time></trkpt>
<trkpt lat="50.539400" lon="4.365421"><time>2026-05-02T19:18:12Z</time></trkpt>
</trkseg>
</trk>
<trk>
<name>hpcbz50bis</name>
<cmt>q</cmt>
<desc>Buzet Sentier n°50bis </desc>
<link href="https://chemins.be/buzet/sentier/50bis"/><trkseg>
<trkpt lat="50.539707" lon="4.366419"><time>2026-05-02T18:48:12Z</time></trkpt>
<trkpt lat="50.539434" lon="4.366805"><time>2026-05-02T18:58:12Z</time></trkpt>
</trkseg>
</trk>
<trk>
<name>hpcbz51</name>
<cmt>q</cmt>
<desc>Buzet Sentier n°51 Rue Paul Pastur</desc>
<link href="https://chemins.be/buzet/sentier/51"/><trkseg>
<trkpt lat="50.540981" lon="4.370408"><time>2026-05-02T18:48:12Z</time></trkpt>
<trkpt lat="50.541431" lon="4.370913"><time>2026-05-02T18:58:12Z</time></trkpt>
<trkpt lat="50.541972" lon="4.371252"><time>2026-05-02T19:08:12Z</time></trkpt>
</trkseg>
</trk>
<trk>
<name>hpcbz51bis</name>
<cmt>r</cmt>
<desc>Buzet Chemin n°51bis Rue du Marais</desc>
<link href="https://chemins.be/buzet/chemin/51bis"/><trkseg>
<trkpt lat="50.538376" lon="4.367476"><time>2026-05-02T18:48:12Z</time></trkpt>
<trkpt lat="50.538171" lon="4.367662"><time>2026-05-02T18:58:12Z</time></trkpt>
<trkpt lat="50.537814" lon="4.367615"><time>2026-05-02T19:08:12Z</time></trkpt>
</trkseg>
</trk>
<trk>
<name>hpcbz53</name>
<cmt>q</cmt>
<desc>Buzet Sentier n°53 </desc>
<link href="https://chemins.be/buzet/sentier/53"/><trkseg>
<trkpt lat="50.538940" lon="4.368821"><time>2026-05-02T18:48:12Z</time></trkpt>
<trkpt lat="50.538440" lon="4.369531"><time>2026-05-02T18:58:12Z</time></trkpt>
<trkpt lat="50.538050" lon="4.369561"><time>2026-05-02T19:08:12Z</time></trkpt>
<trkpt lat="50.537360" lon="4.368851"><time>2026-05-02T19:18:12Z</time></trkpt>
</trkseg></trk>
<trk>
<name>hpcbz53</name>
<cmt>r</cmt>
<desc>Buzet Sentier n°53 </desc>
<link href="https://chemins.be/buzet/sentier/53"/><trkseg>
<trkpt lat="50.537360" lon="4.368851"><time>2026-05-02T19:18:12Z</time></trkpt>
<trkpt lat="50.536893" lon="4.369627"><time>2026-05-02T19:28:12Z</time></trkpt>
</trkseg></trk>
<trk>
<name>hpcbz53</name>
<cmt>q</cmt>
<desc>Buzet Sentier n°53 </desc>
<link href="https://chemins.be/buzet/sentier/53"/><trkseg>
<trkpt lat="50.536893" lon="4.369627"><time>2026-05-02T19:28:12Z</time></trkpt>
<trkpt lat="50.536710" lon="4.370321"><time>2026-05-02T19:38:12Z</time></trkpt>
<trkpt lat="50.536290" lon="4.374241"><time>2026-05-02T19:48:12Z</time></trkpt>
</trkseg>
</trk>
<trk>
<name>hpcbz54</name>
<cmt>v</cmt>
<desc>Buzet Sentier n°54 Rue des Bouchers / Rue du Marais</desc>
<link href="https://chemins.be/buzet/sentier/54"/><trkseg>
<trkpt lat="50.532518" lon="4.370496"><time>2026-05-02T18:48:12Z</time></trkpt>
<trkpt lat="50.532949" lon="4.370144"><time>2026-05-02T18:58:12Z</time></trkpt>
</trkseg></trk>
<trk>
<name>hpcbz54</name>
<cmt>d</cmt>
<desc>Buzet Sentier n°54 Rue des Bouchers / Rue du Marais</desc>
<link href="https://chemins.be/buzet/sentier/54"/><trkseg>
<trkpt lat="50.532949" lon="4.370144"><time>2026-05-02T18:58:12Z</time></trkpt>
<trkpt lat="50.535691" lon="4.369086"><time>2026-05-02T19:08:12Z</time></trkpt>
</trkseg></trk>
<trk>
<name>hpcbz54</name>
<cmt>r</cmt>
<desc>Buzet Sentier n°54 Rue des Bouchers / Rue du Marais</desc>
<link href="https://chemins.be/buzet/sentier/54"/><trkseg>
<trkpt lat="50.535691" lon="4.369086"><time>2026-05-02T19:08:12Z</time></trkpt>
<trkpt lat="50.536278" lon="4.368395"><time>2026-05-02T19:18:12Z</time></trkpt>
<trkpt lat="50.537326" lon="4.368921"><time>2026-05-02T19:28:12Z</time></trkpt>
</trkseg>
</trk>
<trk>
<name>hpcbz55</name>
<cmt>q</cmt>
<desc>Buzet Sentier n°55 </desc>
<link href="https://chemins.be/buzet/sentier/55"/><trkseg>
<trkpt lat="50.531790" lon="4.380114"><time>2026-05-02T18:48:12Z</time></trkpt>
<trkpt lat="50.532215" lon="4.375015"><time>2026-05-02T18:58:12Z</time></trkpt>
<trkpt lat="50.533514" lon="4.373196"><time>2026-05-02T19:08:12Z</time></trkpt>
<trkpt lat="50.534616" lon="4.369436"><time>2026-05-02T19:18:12Z</time></trkpt>
</trkseg>
</trk>
<trk>
<name>hpcbz56</name>
<cmt>q</cmt>
<desc>Buzet Sentier n°56 </desc>
<link href="https://chemins.be/buzet/sentier/56"/><trkseg>
<trkpt lat="50.532230" lon="4.371060"><time>2026-05-02T18:48:12Z</time></trkpt>
<trkpt lat="50.532419" lon="4.371371"><time>2026-05-02T18:58:12Z</time></trkpt>
<trkpt lat="50.532886" lon="4.372443"><time>2026-05-02T19:08:12Z</time></trkpt>
<trkpt lat="50.532994" lon="4.373783"><time>2026-05-02T19:18:12Z</time></trkpt>
</trkseg>
</trk>
<trk>
<name>hpcbz57</name>
<cmt>v</cmt>
<desc>Buzet Sentier n°57 Rue des Bouchers</desc>
<link href="https://chemins.be/buzet/sentier/57"/><trkseg>
<trkpt lat="50.533801" lon="4.368581"><time>2026-05-02T18:48:12Z</time></trkpt>
<trkpt lat="50.533798" lon="4.368808"><time>2026-05-02T18:58:12Z</time></trkpt>
<trkpt lat="50.532976" lon="4.370073"><time>2026-05-02T19:08:12Z</time></trkpt>
</trkseg>
</trk>
<trk>
<name>hpcbz58</name>
<cmt>q</cmt>
<desc>Buzet Sentier n°58 </desc>
<link href="https://chemins.be/buzet/sentier/58"/><trkseg>
<trkpt lat="50.526810" lon="4.391895"><time>2026-05-02T18:48:12Z</time></trkpt>
<trkpt lat="50.524928" lon="4.388266"><time>2026-05-02T18:58:12Z</time></trkpt>
</trkseg>
</trk>
<trk>
<name>hpcbz59</name>
<cmt>s</cmt>
<desc>Buzet Sentier n°59 Rue de Fromiée</desc>
<link href="https://chemins.be/buzet/sentier/59"/><trkseg>
<trkpt lat="50.522468" lon="4.398842"><time>2026-05-02T18:48:12Z</time></trkpt>
<trkpt lat="50.521281" lon="4.399257"><time>2026-05-02T18:58:12Z</time></trkpt>
<trkpt lat="50.519231" lon="4.399064"><time>2026-05-02T19:08:12Z</time></trkpt>
</trkseg>
</trk>
<trk>
<name>hpcbz5bis</name>
<cmt>v</cmt>
<desc>Buzet Chemin n°5bis </desc>
<link href="https://chemins.be/buzet/chemin/5bis"/><trkseg>
<trkpt lat="50.548232" lon="4.374843"><time>2026-05-02T18:48:12Z</time></trkpt>
<trkpt lat="50.549869" lon="4.375944"><time>2026-05-02T18:58:12Z</time></trkpt>
<trkpt lat="50.550579" lon="4.375986"><time>2026-05-02T19:08:12Z</time></trkpt>
<trkpt lat="50.555092" lon="4.373588"><time>2026-05-02T19:18:12Z</time></trkpt>
</trkseg>
</trk>
<trk>
<name>hpcbz60</name>
<cmt>v</cmt>
<desc>Buzet Sentier n°60 </desc>
<link href="https://chemins.be/buzet/sentier/60"/><trkseg>
<trkpt lat="50.523965" lon="4.397093"><time>2026-05-02T18:48:12Z</time></trkpt>
<trkpt lat="50.524917" lon="4.397686"><time>2026-05-02T18:58:12Z</time></trkpt>
<trkpt lat="50.525169" lon="4.397997"><time>2026-05-02T19:08:12Z</time></trkpt>
</trkseg>
</trk>
<trk>
<name>hpcbz61</name>
<cmt>s</cmt>
<desc>Buzet Chemin n°61 </desc>
<link href="https://chemins.be/buzet/chemin/61"/><trkseg>
<trkpt lat="50.538177" lon="4.367040"><time>2026-05-02T18:48:12Z</time></trkpt>
<trkpt lat="50.537819" lon="4.367614"><time>2026-05-02T18:58:12Z</time></trkpt>
</trkseg>
</trk>
<trk>
<name>hpcbz62</name>
<cmt>s</cmt>
<desc>Buzet Sentier n°62 </desc>
<link href="https://chemins.be/buzet/sentier/62"/><trkseg>
<trkpt lat="50.516210" lon="4.403489"><time>2026-05-02T18:48:12Z</time></trkpt>
<trkpt lat="50.516231" lon="4.405163"><time>2026-05-02T18:58:12Z</time></trkpt>
</trkseg>
</trk>
<trk>
<name>hpcbz63</name>
<cmt>s</cmt>
<desc>Buzet Sentier n°63 </desc>
<link href="https://chemins.be/buzet/sentier/63"/><trkseg>
<trkpt lat="50.516752" lon="4.402471"><time>2026-05-02T18:48:12Z</time></trkpt>
<trkpt lat="50.517249" lon="4.403229"><time>2026-05-02T18:58:12Z</time></trkpt>
</trkseg></trk>
<trk>
<name>hpcbz63</name>
<cmt>q</cmt>
<desc>Buzet Sentier n°63 </desc>
<link href="https://chemins.be/buzet/sentier/63"/><trkseg>
<trkpt lat="50.517249" lon="4.403229"><time>2026-05-02T18:58:12Z</time></trkpt>
<trkpt lat="50.517688" lon="4.403900"><time>2026-05-02T19:08:12Z</time></trkpt>
<trkpt lat="50.518326" lon="4.404803"><time>2026-05-02T19:18:12Z</time></trkpt>
<trkpt lat="50.521507" lon="4.406610"><time>2026-05-02T19:28:12Z</time></trkpt>
<trkpt lat="50.523521" lon="4.407938"><time>2026-05-02T19:38:12Z</time></trkpt>
</trkseg>
</trk>
<trk>
<name>hpcbz7</name>
<cmt>r</cmt>
<desc>Buzet Chemin n°7 </desc>
<link href="https://chemins.be/buzet/chemin/7"/><trkseg>
<trkpt lat="50.543254" lon="4.366037"><time>2026-05-02T18:48:12Z</time></trkpt>
<trkpt lat="50.544371" lon="4.364781"><time>2026-05-02T18:58:12Z</time></trkpt>
</trkseg></trk>
<trk>
<name>hpcbz7</name>
<cmt>v</cmt>
<desc>Buzet Chemin n°7 </desc>
<link href="https://chemins.be/buzet/chemin/7"/><trkseg>
<trkpt lat="50.544371" lon="4.364781"><time>2026-05-02T18:58:12Z</time></trkpt>
<trkpt lat="50.545515" lon="4.363497"><time>2026-05-02T19:08:12Z</time></trkpt>
<trkpt lat="50.547671" lon="4.362171"><time>2026-05-02T19:18:12Z</time></trkpt>
<trkpt lat="50.549571" lon="4.360070"><time>2026-05-02T19:28:12Z</time></trkpt>
</trkseg></trk>
<trk>
<name>hpcbz7</name>
<cmt>s</cmt>
<desc>Buzet Chemin n°7 </desc>
<link href="https://chemins.be/buzet/chemin/7"/><trkseg>
<trkpt lat="50.549571" lon="4.360070"><time>2026-05-02T19:28:12Z</time></trkpt>
<trkpt lat="50.549944" lon="4.359376"><time>2026-05-02T19:38:12Z</time></trkpt>
</trkseg></trk>
<trk>
<name>hpcbz7</name>
<cmt>d</cmt>
<desc>Buzet Chemin n°7 </desc>
<link href="https://chemins.be/buzet/chemin/7"/><trkseg>
<trkpt lat="50.549944" lon="4.359376"><time>2026-05-02T19:38:12Z</time></trkpt>
<trkpt lat="50.551751" lon="4.357040"><time>2026-05-02T19:48:12Z</time></trkpt>
</trkseg>
</trk>
<trk>
<name>hpcbz8</name>
<cmt>v</cmt>
<desc>Buzet Chemin n°8 Rue de Rèves</desc>
<link href="https://chemins.be/buzet/chemin/8"/><trkseg>
<trkpt lat="50.539620" lon="4.369904"><time>2026-05-02T18:48:12Z</time></trkpt>
<trkpt lat="50.539341" lon="4.370525"><time>2026-05-02T18:58:12Z</time></trkpt>
<trkpt lat="50.538982" lon="4.370878"><time>2026-05-02T19:08:12Z</time></trkpt>
<trkpt lat="50.537759" lon="4.372260"><time>2026-05-02T19:18:12Z</time></trkpt>
<trkpt lat="50.534073" lon="4.377704"><time>2026-05-02T19:28:12Z</time></trkpt>
<trkpt lat="50.532904" lon="4.379002"><time>2026-05-02T19:38:12Z</time></trkpt>
<trkpt lat="50.531699" lon="4.380172"><time>2026-05-02T19:48:12Z</time></trkpt>
<trkpt lat="50.530027" lon="4.381639"><time>2026-05-02T19:58:12Z</time></trkpt>
<trkpt lat="50.526709" lon="4.384825"><time>2026-05-02T20:08:12Z</time></trkpt>
<trkpt lat="50.525846" lon="4.385530"><time>2026-05-02T20:18:12Z</time></trkpt>
<trkpt lat="50.524587" lon="4.387081"><time>2026-05-02T20:28:12Z</time></trkpt>
</trkseg>
</trk>
<trk>
<name>hpcbz9</name>
<cmt>v</cmt>
<desc>Buzet Chemin n°9 </desc>
<link href="https://chemins.be/buzet/chemin/9"/><trkseg>
<trkpt lat="50.536976" lon="4.383573"><time>2026-05-02T18:48:12Z</time></trkpt>
<trkpt lat="50.536922" lon="4.381288"><time>2026-05-02T18:58:12Z</time></trkpt>
<trkpt lat="50.537624" lon="4.377564"><time>2026-05-02T19:08:12Z</time></trkpt>
</trkseg></trk>
<trk>
<name>hpcbz9</name>
<cmt>s</cmt>
<desc>Buzet Chemin n°9 </desc>
<link href="https://chemins.be/buzet/chemin/9"/><trkseg>
<trkpt lat="50.537624" lon="4.377564"><time>2026-05-02T19:08:12Z</time></trkpt>
<trkpt lat="50.537876" lon="4.376506"><time>2026-05-02T19:18:12Z</time></trkpt>
</trkseg></trk>
<trk>
<name>hpcbz9</name>
<cmt>d</cmt>
<desc>Buzet Chemin n°9 </desc>
<link href="https://chemins.be/buzet/chemin/9"/><trkseg>
<trkpt lat="50.537876" lon="4.376506"><time>2026-05-02T19:18:12Z</time></trkpt>
<trkpt lat="50.538433" lon="4.374715"><time>2026-05-02T19:28:12Z</time></trkpt>
<trkpt lat="50.539081" lon="4.370807"><time>2026-05-02T19:38:12Z</time></trkpt>
</trkseg>
</trk>
<trk>
<name>hpcbzi1</name>
<cmt>v</cmt>
<desc>Buzet Sentier n°i1 </desc>
<link href="https://chemins.be/buzet/sentier/i1"/><trkseg>
<trkpt lat="50.536177" lon="4.363218"><time>2026-05-02T18:48:12Z</time></trkpt>
<trkpt lat="50.536222" lon="4.363316"><time>2026-05-02T18:58:12Z</time></trkpt>
<trkpt lat="50.536977" lon="4.363204"><time>2026-05-02T19:08:12Z</time></trkpt>
<trkpt lat="50.537273" lon="4.362357"><time>2026-05-02T19:18:12Z</time></trkpt>
<trkpt lat="50.537282" lon="4.362146"><time>2026-05-02T19:28:12Z</time></trkpt>
<trkpt lat="50.537579" lon="4.361412"><time>2026-05-02T19:38:12Z</time></trkpt>
<trkpt lat="50.538038" lon="4.361482"><time>2026-05-02T19:48:12Z</time></trkpt>
</trkseg>
</trk>
<trk>
<name>hpcbzi2</name>
<cmt>v</cmt>
<desc>Buzet Chemin n°i2 </desc>
<link href="https://chemins.be/buzet/chemin/i2"/><trkseg>
<trkpt lat="50.549473" lon="4.360093"><time>2026-05-02T18:48:12Z</time></trkpt>
<trkpt lat="50.555231" lon="4.357633"><time>2026-05-02T18:58:12Z</time></trkpt>
</trkseg>
</trk>
</gpx>